Location: Ponte Samoggia
(44.5667°N, 11.1333°E)
Time: 23:07:22
(UTC+00:00)

Cosmos 1455 - Pass Details

Date: 26 May 2022
Orbit: 492 x 515 km, 82.5° (Epoch: 26 June)

Event Time Altitude Azimuth Distance (km) Brightness Sun altitude
Rises 00:45:21 0° 359° (N) 2,584 6.9 -21.0°
Reaches altitude 10° 00:47:36 10° 9° (N) 1,696 5.9 -20.8°
Maximum altitude 00:51:01 35° 76° (ENE) 809 3.4 -20.6°
Enters shadow 00:52:38 24° 124° (SE) 1,065 3.7 -20.5°
